Weather in Fougeres

France     48°21′21″N   1°12′11″W
temp.,
°C
wind,
m/s
gust,
m/s
humid.,
%
clouds,
%
prec.,
mm/h
press.,
hPa
HPBL,
m
11 april, sun
sun1123:00+6n379598 0.2 1011340
02:00+4nnw369790 0.2 1012182
05:00+3n4109854 0.1 1012253
08:00+4n499621 0.1 1014376
11:00+5nne5791100 0.4 1016738
14:00+7nne6676100 1.2 10181312
17:00+7nne6778100 1.1 10201122
20:00+5n487981 1.6 1022297
12 april, mon
mon1223:00+1n35852 0.0 102663
02:00−1n22885 0.0 102818
05:00−1wnw11875 0.0 102910
08:000w229058 0.0 103014
11:00+7nnw34675 0.0 10311140
14:00+9nnw44525 0.0 10321517
17:00+9nnw56535 0.0 10311302
20:00+6nnw47765 0.0 1032279
13 april, tue
tue1323:00+2nw22916 0.0 103323
02:00+2n22945 0.0 103312
05:00+1ene22955 0.0 103325
08:00+1ene22934 0.0 103314
11:00+7ene34685 0.0 1034748
14:00+10e345610 0.0 10331508
17:00+11e345397 0.0 10311660
20:00+8nne23749 0.1 103150
14 april, wed
wed1423:00+3ene4685100 0.0 103385
02:00+2e3576100 0.0 103274
05:00+1e3567100 0.0 103282
08:00+2ene376498 0.0 1032123
11:00+8ene475687 0.0 1032677
14:00+11ene56515 0.0 10301559
17:00+12ene565290 0.0 10291935
20:00+8ene59735 0.1 1029323
15 april, thu
thu1523:00+3ne412910 0.0 1030251
02:00+2ne512890 0.0 1030245
05:000ne410940 0.0 1030180
08:000ne410910 0.0 1030203
11:00+7ene69580 0.0 1030922
14:00+10ene67475 0.0 10292003
17:00+11ene684798 0.0 10272200
20:00+8ne510650 0.0 1027455